Weather in Solyonoe Ozero

Russia / Republic of Crimea     45°53′07″N   34°27′00″E
temp.,
°C
wind,
m/s
gust,
m/s
humid.,
%
clouds,
%
prec.,
mm/h
press.,
hPa
HPBL,
m
24 january, sun
sun2400:00+7s787823 0.0 101790
03:00+7sse777859 0.0 101573
06:00+7sse8977100 0.0 101494
09:00+7sse81182100 0.0 1014147
12:00+7se81284100 0.0 1014156
15:00+8sse4581100 0.0 101228
18:00+8sse5676100 0.0 101227
21:00+8sse5680100 0.1 101245
25 january, mon
mon2500:00+7sse81187100 0.6 1012140
03:00+7sse7108580 0.8 1011118
06:00+7s7108415 0.1 1011110
09:00+7sse8118314 0.1 1011124
12:00+8sse8107859 0.0 101098
15:00+9sse787180 0.0 100859
18:00+8se91277100 0.0 1006121
21:00+7sse7982100 0.1 100498
26 january, tue
tue2600:00+8s111786100 1.7 1005258
03:00+7sw8137799 2.2 1007271
06:00+6ssw697633 0.0 1009166
09:00+6s558167 0.0 101074
12:00+7sse6772100 0.0 100972
15:00+9sse91374100 0.4 1007124
18:00+8sse91183100 0.4 1007108
21:00+8s7883100 0.4 100776
27 january, wed
wed2700:00+8sse7884100 0.4 100670
03:00+8se7990100 0.8 100490
06:00+8sse81087100 0.4 100198
09:00+8se91285100 0.9 999111
12:00+8sse7982100 0.2 99868
15:00+9se91181100 0.5 99591
18:00+9sse81072100 0.1 99691
21:00+8se81084100 0.2 99694
28 january, thu
thu2800:00+6sw111483100 0.0 998624
03:00+4wsw101283100 0.1 1000902
06:00+2w91084100 0.0 1002760
09:00+2wnw101185100 0.1 1004820
12:00+2wnw101180100 0.1 1006985
15:00+3w101272100 0.2 10071254
18:00+3w101272100 0.1 10091315
21:00+2wsw10118898 0.3 1010820